GFSSW_850_thetae_081.txt.gz
Theta_e
299 300 300 299 299 299 299 299 298 298 298 299 299 300 300 300 300 302 309 309 309 304 302 314 315 312 312 314 318 318 321 322 322 321 322 320 320 319 318 318 318 319 320 321 326
300 299 299 299 299 299 298 298 298 298 298 298 299 300 300 299 300 307 309 306 303 302 302 311 315 315 315 315 316 319 320 320 321 321 321 321 320 319 319 318 318 318 318 318 324
299 299 299 299 299 298 298 298 298 298 298 298 298 299 299 299 308 309 306 307 307 303 310 309 312 313 315 315 316 317 318 319 319 319 319 319 319 318 319 320 319 319 318 318 320
299 299 298 298 298 298 298 298 298 298 298 298 298 299 299 300 310 311 304 306 308 308 313 311 310 311 314 315 316 318 318 318 318 317 318 318 317 318 318 318 318 318 318 318 318
299 298 298 298 298 298 298 297 298 298 298 297 298 298 300 309 309 308 304 307 309 310 312 313 312 312 314 314 314 315 316 315 316 315 315 316 317 317 317 317 317 317 317 318 317
300 298 298 298 297 298 297 297 297 298 298 298 298 299 305 310 307 306 305 307 310 312 312 313 313 313 314 315 315 314 315 315 315 314 315 315 316 315 315 316 316 317 317 318 317
300 298 298 297 297 297 297 297 298 298 298 298 299 301 309 308 308 307 307 306 307 309 312 312 314 314 314 315 314 314 315 315 315 315 315 315 317 317 317 317 317 318 318 319 318
298 297 297 297 297 297 297 297 297 298 299 300 302 309 309 308 307 308 308 308 307 307 308 309 311 313 313 312 312 313 313 314 315 316 317 317 317 318 318 317 318 319 319 319 319
298 297 296 296 296 296 296 297 297 299 301 302 309 310 312 308 311 312 311 309 309 310 308 308 309 311 311 312 312 313 312 314 315 316 316 317 319 319 318 319 319 319 319 320 319
298 297 296 295 295 296 296 297 300 301 306 310 309 311 312 311 310 311 311 311 310 310 309 309 310 312 313 314 315 312 314 315 315 315 316 317 317 316 317 318 319 319 319 319 319
298 296 295 295 295 296 298 305 309 310 307 307 306 308 306 306 305 307 310 310 311 311 311 310 312 313 313 313 313 313 313 312 313 313 313 313 315 315 315 316 318 319 319 320 320
298 296 294 295 295 296 301 304 301 301 305 305 305 306 307 308 308 307 307 310 312 313 313 313 313 313 312 312 312 312 312 312 313 314 315 316 317 317 317 317 317 317 319 320 320
296 294 294 295 295 302 300 299 298 301 308 307 309 310 310 309 311 310 307 309 312 313 314 315 315 314 313 313 312 312 313 313 315 316 316 316 317 319 319 319 318 318 317 318 321
294 293 294 295 300 299 302 299 300 302 313 308 312 311 311 311 313 310 309 309 311 312 313 314 314 313 312 313 313 314 314 315 316 316 316 318 319 319 318 319 320 319 318 318 320
293 293 294 297 301 301 300 298 302 306 311 307 312 310 307 310 311 312 309 308 310 312 311 312 313 314 313 312 314 315 315 316 316 315 315 316 318 318 320 320 321 320 319 318 319
293 293 294 300 301 300 297 296 305 315 306 307 309 308 306 309 310 311 311 310 310 313 312 312 312 312 314 315 315 314 315 315 315 314 317 317 318 318 320 322 322 322 322 320 320
293 293 294 297 302 295 295 305 312 306 304 307 308 306 305 305 307 310 311 313 313 314 315 315 314 314 314 313 314 314 315 314 314 318 319 318 319 319 320 323 322 323 323 324 324
292 293 295 299 296 295 303 308 304 303 304 305 304 304 304 305 307 307 308 309 310 312 312 312 312 313 313 314 314 314 314 314 316 317 320 320 320 323 323 322 322 323 324 324 326
293 297 300 295 294 298 303 306 305 305 303 303 302 303 304 305 306 306 307 307 309 312 312 311 311 312 314 314 314 315 315 314 316 317 317 316 317 323 323 323 323 323 323 322 322
298 300 299 294 294 302 304 303 303 301 301 301 301 302 304 305 304 305 306 310 312 313 312 311 312 313 314 314 315 315 316 319 318 319 319 319 319 328 324 323 322 321 319 317 316
298 301 299 294 300 302 305 302 300 299 299 300 300 301 301 301 301 301 302 306 311 311 313 314 312 311 313 315 314 316 317 317 319 320 321 323 327 321 319 318 317 316 314 312 310
298 303 297 298 302 302 303 301 298 300 300 300 301 301 301 301 302 302 302 302 305 308 311 313 317 313 311 313 314 314 316 317 320 318 320 322 323 317 317 315 314 314 310 308 307
299 299 296 300 304 302 300 300 300 301 301 301 301 301 302 302 302 302 302 302 302 304 309 308 313 314 313 313 314 314 314 316 318 318 319 322 323 317 317 318 315 312 309 305 304
299 302 299 299 300 301 301 300 300 300 301 300 301 302 302 302 303 303 303 303 302 304 306 306 307 312 313 313 315 317 314 316 318 319 318 319 317 320 320 320 317 312 308 303 302
299 301 301 301 301 300 300 300 300 300 300 300 302 302 301 301 301 302 303 304 304 302 304 308 308 308 311 311 313 314 316 316 317 316 315 314 313 314 317 320 317 311 306 303 300
297 299 298 300 299 300 297 299 298 299 299 300 300 300 300 301 301 302 303 304 303 304 306 307 307 308 309 313 312 312 314 312 312 310 311 312 313 317 319 319 316 310 307 302 300
296 297 300 298 299 300 300 299 298 298 298 298 299 300 300 301 301 300 300 301 303 304 304 305 307 308 308 314 312 312 312 311 310 311 312 315 316 318 317 318 313 308 305 301 298

GFSSW_850_thetae_084.txt.gz
Theta_e
299 300 300 300 300 299 299 299 299 299 299 299 300 300 300 300 301 301 307 309 311 310 309 303 316 314 311 314 318 320 321 322 321 321 322 322 322 322 320 320 319 319 319 321 326
299 300 300 300 299 299 299 298 298 298 298 299 299 299 299 299 300 303 309 310 308 307 307 306 314 315 313 314 314 318 323 321 321 321 321 321 321 321 321 320 320 319 319 319 322
300 300 299 299 299 299 299 298 298 298 298 298 298 299 299 299 306 313 308 305 306 306 303 306 311 315 316 316 315 315 319 320 320 319 319 319 320 320 320 320 320 320 319 319 320
300 299 299 299 299 299 299 298 298 298 298 298 298 298 298 299 312 311 308 305 305 307 306 312 310 312 314 315 316 316 316 317 317 318 319 318 318 319 319 319 318 319 319 319 319
300 299 299 299 298 298 299 298 298 298 298 298 298 298 298 310 312 311 309 305 306 308 313 314 312 311 312 313 313 315 316 316 317 317 317 317 317 317 317 317 318 318 318 318 319
300 299 299 298 298 298 299 298 298 298 298 298 298 298 301 309 309 308 307 307 309 313 313 313 314 314 314 315 315 315 315 315 315 315 315 315 316 315 315 315 316 316 316 317 318
300 300 299 298 298 298 298 298 298 298 298 298 298 300 309 308 309 309 308 306 307 309 313 313 313 314 315 315 315 315 315 315 316 315 315 315 315 316 315 315 316 317 317 317 317
301 299 298 297 297 297 297 297 297 297 297 299 301 305 309 309 309 308 309 309 309 307 309 310 312 313 314 315 315 314 314 313 314 314 315 314 316 316 316 317 318 318 318 318 318
299 298 298 297 297 296 297 297 297 297 299 301 309 312 311 312 310 312 312 311 310 309 308 309 309 311 312 314 314 314 314 314 314 314 315 316 316 317 318 318 319 319 319 319 319
298 299 297 296 296 296 296 298 302 302 307 311 311 313 312 311 312 312 312 312 311 311 311 310 309 311 312 313 313 314 314 314 314 314 315 315 316 317 317 316 316 317 319 319 320
299 298 297 295 295 296 297 307 310 313 313 314 312 312 308 308 308 307 308 312 311 312 312 311 311 311 313 313 313 314 314 313 313 313 313 314 314 314 315 315 315 315 316 319 319
299 298 296 294 295 297 303 307 303 303 304 308 306 307 309 310 310 310 307 311 311 313 313 313 313 313 314 314 313 313 312 312 312 313 314 315 315 317 318 318 317 316 316 317 319
298 297 294 295 295 300 302 302 301 302 306 308 309 311 312 311 312 312 308 309 312 313 314 314 314 315 315 315 314 313 313 312 313 313 314 316 316 316 317 316 317 317 317 316 318
296 294 294 295 300 301 305 300 301 302 312 310 310 312 312 312 314 311 311 310 311 312 313 313 314 314 314 314 314 314 313 314 315 315 317 316 317 316 316 318 319 319 318 318 318
294 293 294 297 303 304 302 300 302 308 313 310 312 311 310 311 311 313 311 310 310 312 312 312 313 313 313 313 312 312 314 315 315 316 317 316 315 315 316 318 319 320 320 320 319
293 293 297 299 300 302 300 297 306 316 311 308 312 310 307 309 310 312 311 311 311 312 312 312 312 312 312 313 314 314 314 314 315 316 318 317 314 315 317 322 323 323 323 325 321
293 293 294 300 304 302 295 306 315 312 307 307 309 308 306 306 306 307 310 313 313 313 314 314 314 314 314 314 314 315 315 314 314 315 317 319 322 319 323 323 322 323 325 325 325
292 293 296 301 297 296 304 309 309 306 307 306 305 305 304 305 305 306 308 308 309 309 311 311 312 313 315 315 314 314 315 316 314 317 316 316 324 324 322 324 322 322 322 322 321
293 296 302 302 294 298 305 309 307 307 305 304 303 303 304 305 306 307 308 307 307 308 309 313 312 313 314 314 314 314 314 314 316 316 316 316 319 324 322 321 320 319 318 318 316
300 301 301 294 294 303 307 306 305 303 302 302 302 303 303 305 305 305 305 307 310 313 313 314 315 312 313 314 314 314 315 319 319 319 317 316 319 326 321 320 319 317 316 315 313
300 303 302 294 301 306 308 305 302 300 301 301 302 302 302 302 302 302 302 303 304 309 308 311 313 315 314 315 315 315 316 316 317 318 320 322 324 316 318 318 317 316 313 311 308
301 306 299 299 306 305 305 303 299 301 301 302 302 302 302 302 302 303 303 303 303 304 303 308 312 315 314 313 314 314 314 317 319 317 319 320 321 318 318 318 316 314 311 308 305
301 301 295 303 308 305 302 301 301 302 302 302 302 302 303 302 302 303 303 303 303 303 304 307 309 311 311 312 312 313 314 317 319 319 319 320 320 318 318 318 316 314 310 306 303
301 304 301 301 302 304 302 301 301 301 302 301 302 302 303 303 303 302 302 303 303 304 304 305 306 307 312 312 311 314 316 316 316 320 318 318 317 316 320 320 318 311 307 303 301
301 304 303 304 302 302 302 301 301 301 301 301 302 302 303 302 302 302 303 303 303 303 304 305 304 305 307 309 308 311 314 314 315 318 318 316 314 319 320 320 314 310 307 303 300
297 303 301 302 301 302 299 300 301 301 300 302 301 301 301 301 301 302 302 302 303 303 304 305 306 305 305 306 308 311 312 313 314 316 316 316 314 317 316 316 313 309 305 302 300
298 299 302 300 301 301 302 301 300 299 299 299 300 300 300 300 300 301 301 301 301 302 304 304 305 306 306 306 308 313 312 311 312 314 313 315 317 314 311 308 307 305 302 300 297

GFSSW_850_thetae_087.txt.gz
Theta_e
301 300 300 300 301 300 300 300 300 301 301 301 301 300 300 299 300 300 302 305 306 309 310 310 305 315 311 311 316 319 318 321 320 320 319 320 319 321 319 319 320 320 319 321 327
301 301 300 300 300 300 300 300 300 300 300 299 299 299 298 298 300 302 308 309 310 310 309 309 307 315 313 312 312 311 316 319 318 318 319 319 318 317 317 318 320 319 319 323 325
301 300 300 300 300 299 299 299 299 299 300 299 298 298 298 298 300 310 309 305 304 305 305 306 305 308 313 312 312 312 312 313 317 319 319 317 316 317 315 317 318 318 318 319 322
301 300 300 300 299 299 299 299 299 299 299 298 298 298 298 298 308 311 310 309 308 305 306 307 309 308 310 312 314 312 313 313 314 315 316 315 316 316 316 316 317 317 317 317 319
300 300 300 299 299 299 299 299 299 299 298 298 297 297 298 305 306 305 311 309 305 305 307 311 313 312 309 310 311 311 311 313 314 315 315 316 314 315 315 316 315 316 316 316 316
300 300 300 299 299 299 299 299 299 298 298 297 297 298 299 308 307 309 308 308 306 312 313 314 314 314 311 310 309 311 312 313 314 314 314 314 313 314 314 315 315 315 315 315 316
300 301 300 299 299 299 299 298 298 297 297 297 298 300 301 302 307 309 309 308 307 307 310 312 313 313 313 313 315 314 312 311 312 312 312 313 313 313 314 315 315 315 315 315 316
301 301 300 299 298 299 298 297 297 297 297 297 300 304 304 303 310 308 309 309 308 308 307 308 309 310 311 313 313 312 312 311 311 311 312 311 311 312 314 314 314 314 314 315 316
302 301 299 298 298 297 296 296 296 297 298 300 302 306 312 311 311 311 312 309 309 309 309 308 309 309 310 309 310 311 311 311 312 312 312 311 312 313 313 315 315 315 315 316 316
301 300 299 298 297 296 296 296 301 304 305 306 313 312 313 310 311 313 312 312 312 311 309 308 309 307 306 307 311 311 310 309 310 310 311 309 310 311 313 313 313 313 313 314 314
299 299 300 298 297 295 296 300 309 312 312 312 313 310 310 309 308 308 308 309 312 311 310 310 307 306 306 308 309 310 310 310 310 311 311 310 310 310 312 312 313 313 314 314 314
301 301 301 298 296 296 302 306 303 303 303 306 310 311 308 307 309 310 309 307 311 310 310 310 309 309 310 311 311 311 311 310 309 310 311 310 310 310 313 313 314 314 315 314 314
301 301 297 295 295 299 302 302 302 300 304 307 305 310 308 311 311 310 308 307 310 310 311 311 311 312 312 312 313 312 312 311 311 311 311 311 311 313 314 314 315 315 316 316 315
301 297 294 294 298 302 304 302 299 299 309 311 307 310 311 311 313 312 311 309 309 309 310 310 312 313 313 314 313 313 312 313 312 312 315 314 317 314 314 314 314 319 319 315 316
297 294 293 295 304 304 302 302 299 307 314 309 310 311 312 312 311 312 311 310 309 310 310 311 311 311 312 312 312 312 312 312 312 312 312 314 315 314 314 314 314 322 324 318 317
295 293 295 297 300 303 302 297 307 314 313 311 312 310 309 309 309 312 311 310 310 310 310 309 311 309 310 311 312 312 314 314 313 312 314 314 316 317 317 316 323 324 322 320 320
294 293 299 300 303 303 300 307 313 313 309 308 310 308 307 306 308 307 310 311 310 310 311 311 311 311 311 310 312 312 313 314 313 313 314 316 316 320 322 323 322 321 319 317 316
293 293 295 301 302 301 304 306 312 308 306 306 305 305 304 305 304 305 306 305 306 307 306 306 308 309 312 311 312 312 312 314 317 316 315 314 316 322 316 319 318 317 316 314 312
292 295 300 301 295 301 305 308 306 305 304 303 303 302 303 304 305 306 307 306 306 310 312 313 312 312 313 313 313 313 312 313 315 315 315 314 313 321 318 319 318 317 314 311 310
299 301 302 299 294 304 305 308 304 302 301 302 302 303 303 303 303 302 303 304 303 307 305 308 311 312 313 313 312 312 313 313 315 319 319 316 322 323 318 318 317 315 312 309 307
300 302 302 294 301 306 306 305 301 301 301 301 302 302 302 302 302 302 302 303 303 303 302 305 310 311 310 313 313 313 313 314 315 317 318 319 320 316 317 317 317 314 310 307 304
301 303 299 299 304 307 305 303 300 301 301 302 302 302 301 303 302 302 302 303 304 303 303 307 309 307 307 307 308 311 315 314 315 316 317 319 321 316 317 317 314 311 308 305 303
301 300 297 304 304 303 302 301 302 302 302 302 302 303 303 302 302 303 303 303 303 304 305 305 306 307 305 307 310 312 312 312 315 317 319 319 319 318 317 317 312 308 304 302 301
302 301 300 301 302 303 301 301 301 301 301 301 302 303 302 302 302 302 302 303 303 303 304 304 305 305 306 306 307 310 310 310 313 317 319 318 316 317 319 316 310 306 303 301 299
300 302 302 301 300 301 302 301 303 302 301 301 302 302 302 302 301 300 302 302 303 303 303 303 303 303 304 304 304 305 308 309 311 313 316 318 317 319 316 312 309 306 303 301 299
300 301 301 301 301 301 300 300 301 301 300 301 301 301 300 300 300 300 301 301 302 302 302 302 302 303 303 303 305 305 305 308 310 314 316 315 315 315 312 310 307 305 302 299 297
299 300 301 301 300 300 299 301 300 300 300 299 300 299 300 300 300 299 299 299 300 300 300 300 299 304 302 304 306 307 308 308 312 314 313 315 314 311 307 304 303 301 299 297 295

GFSSW_850_thetae_093.txt.gz
Theta_e
320 320 319 319 319 318 316 311 308 304 302 302 302 302 303 303 303 303 304 304 304 303 305 304 307 309 311 308 312 315 314 313 315 316 316 318 317 319 319 318 317 318 317 317 331
321 320 319 319 318 317 315 310 307 304 302 302 301 302 301 302 303 305 308 307 309 304 306 309 310 310 310 313 308 309 311 313 314 315 316 317 316 317 316 317 316 317 316 317 317
325 323 319 317 317 315 313 309 305 302 301 301 301 301 300 301 301 306 305 307 308 307 307 308 308 308 307 310 309 309 312 312 313 314 314 312 313 315 314 314 314 315 315 316 316
327 326 323 317 315 311 310 308 305 301 300 300 300 300 299 300 302 311 308 307 305 307 305 306 307 305 304 310 313 310 309 311 311 313 312 310 312 311 312 312 313 314 314 314 314
326 326 326 319 314 312 307 306 305 300 300 299 299 298 298 298 302 305 304 304 307 307 305 305 308 307 307 306 308 308 309 311 312 312 312 312 310 311 311 313 314 314 314 314 314
326 325 323 323 314 310 307 305 304 300 299 299 298 297 297 300 305 307 306 304 308 307 307 306 311 311 311 310 306 308 308 308 310 311 310 310 309 311 311 313 313 312 312 312 313
324 323 320 319 315 308 304 308 301 299 299 297 297 296 301 301 304 305 309 308 307 307 309 311 311 308 309 309 311 312 311 309 310 311 309 311 309 308 312 313 311 312 312 313 313
321 316 313 309 309 313 303 303 299 299 297 296 297 299 304 302 301 301 304 307 308 308 308 307 306 307 308 309 309 309 309 311 310 309 310 310 310 309 312 311 311 311 312 312 313
319 314 311 307 308 305 303 302 299 298 296 298 301 305 305 302 303 306 306 304 307 308 308 308 308 307 307 306 307 306 309 309 309 309 309 308 309 309 311 311 310 311 312 312 313
315 313 308 308 310 303 302 301 297 297 300 304 306 305 305 307 310 311 309 309 309 308 308 308 307 304 303 305 309 308 308 308 309 308 308 307 308 309 309 309 308 309 311 312 312
314 311 309 308 307 305 302 301 302 304 305 305 306 304 305 307 308 307 312 311 310 309 306 306 305 305 304 304 306 307 307 307 306 306 307 307 308 307 308 307 307 309 310 311 311
313 311 308 306 306 301 302 300 303 303 303 305 304 307 306 309 311 306 308 310 308 309 308 307 307 307 306 305 306 306 306 306 306 307 307 306 308 309 307 307 309 309 312 317 317
311 307 306 304 301 301 303 302 301 302 300 302 304 307 307 309 313 309 308 307 306 306 308 307 309 309 308 308 308 307 307 308 308 309 308 308 309 309 310 311 318 318 318 317 316
306 304 303 302 301 300 297 299 301 301 296 301 303 305 309 309 309 308 309 308 306 307 308 308 309 309 309 309 309 309 309 309 310 309 310 308 311 311 310 319 318 317 317 315 315
302 303 302 301 297 297 301 301 302 300 302 305 306 306 308 309 311 310 310 307 306 307 306 307 309 309 309 309 309 310 310 310 311 310 310 310 309 309 315 319 317 314 316 315 313
301 301 301 297 297 301 301 301 301 308 304 308 309 309 310 310 311 310 309 309 309 307 307 307 308 308 308 309 308 310 311 310 309 310 312 309 309 308 318 317 316 316 317 314 312
300 299 294 294 298 302 302 300 307 308 306 312 311 311 311 312 312 311 310 309 308 309 309 309 309 308 309 309 308 309 309 310 311 311 312 309 311 310 316 316 316 316 316 311 310
300 298 293 298 302 303 301 306 309 304 305 303 309 311 312 305 305 306 308 308 302 308 308 308 309 309 309 310 310 308 308 311 314 314 310 311 312 312 317 316 317 317 311 312 308
297 296 294 299 302 302 303 306 306 303 302 302 304 305 304 303 303 304 303 303 302 301 309 305 309 305 308 305 308 310 310 309 311 311 312 311 312 316 317 317 317 314 309 306 304
293 294 295 298 300 300 305 307 303 301 302 303 303 303 302 302 302 302 302 302 301 301 302 303 303 307 304 307 306 305 308 310 309 317 316 312 312 312 317 316 317 311 306 303 303
297 300 301 301 297 303 304 305 301 301 301 302 302 302 302 302 302 302 303 303 302 302 303 303 304 304 302 305 304 303 307 309 313 313 316 313 310 314 315 315 312 307 303 301 300
301 299 299 297 303 303 304 303 302 302 302 302 303 304 303 303 302 303 302 303 303 303 303 303 304 305 302 303 303 303 310 311 312 312 310 314 312 312 311 310 307 304 302 300 298
300 298 299 300 302 301 300 301 302 302 302 302 302 303 302 302 302 302 302 302 301 303 302 302 301 301 298 301 303 304 303 304 305 308 310 313 312 311 311 308 305 303 301 299 297
300 295 298 298 302 301 301 301 301 301 301 302 303 302 301 302 301 301 302 302 301 303 304 302 302 301 301 300 302 303 302 303 304 303 306 307 308 312 312 311 306 302 300 298 296
301 298 300 299 299 300 300 302 302 301 301 301 301 301 301 302 300 300 300 300 300 302 302 300 301 302 302 301 300 299 300 301 302 303 304 304 307 308 309 306 303 301 300 298 296
300 299 300 300 300 299 299 301 302 301 302 301 301 300 299 299 299 299 299 299 299 299 299 298 300 299 300 298 297 300 301 302 302 302 303 303 304 308 304 302 300 299 297 296 294
299 300 300 298 298 298 299 300 300 299 299 298 299 298 298 298 298 298 298 298 298 299 298 298 296 298 299 300 301 301 303 306 303 302 305 305 308 306 302 298 296 296 294 294 292

GFSSW_850_thetae_099.txt.gz
Theta_e
326 326 326 326 324 322 321 321 318 316 317 317 316 316 311 309 310 307 312 311 308 305 304 304 307 307 308 312 312 312 312 312 312 313 313 315 317 316 317 317 316 316 316 314 313
327 325 325 326 326 326 324 322 319 316 313 314 313 312 309 306 307 314 309 307 308 306 303 304 308 310 310 308 310 314 313 311 312 313 314 315 315 315 315 316 315 314 314 313 313
326 326 327 325 325 326 326 324 322 320 315 315 311 310 304 302 306 311 306 307 308 306 305 305 308 308 309 310 306 308 310 312 313 314 314 315 314 314 315 315 313 314 313 313 313
323 324 325 326 326 325 325 325 324 323 317 311 311 310 303 299 313 309 308 307 305 306 307 308 309 307 307 309 308 308 308 309 311 311 312 313 313 312 311 312 313 312 312 312 313
311 315 321 322 325 324 325 325 324 321 317 311 307 307 301 299 304 309 307 308 307 306 305 306 307 305 306 305 307 310 310 310 310 310 311 310 311 312 311 311 312 312 312 312 311
308 309 311 320 321 322 323 323 322 322 317 310 305 304 298 297 312 308 306 306 304 303 303 305 305 305 305 307 308 308 308 310 309 309 308 310 311 308 311 313 312 311 311 311 311
307 309 311 313 319 319 320 320 319 319 318 310 307 298 299 301 310 307 306 304 306 305 304 306 306 310 309 310 309 309 310 310 310 311 311 310 311 310 312 310 310 310 311 312 311
307 308 317 316 317 318 316 317 317 316 313 312 304 300 302 308 310 310 305 305 305 303 306 309 307 309 307 307 307 309 309 311 311 310 310 311 312 311 309 309 310 311 311 311 311
308 309 312 314 316 316 316 316 316 313 309 306 302 302 304 308 308 309 305 303 305 307 307 307 307 307 305 307 308 308 310 311 311 310 310 310 310 311 310 309 309 310 309 309 311
309 316 315 315 314 315 315 314 311 309 305 303 302 306 309 310 307 309 308 303 301 307 306 306 306 306 306 308 310 309 310 310 310 309 308 309 308 309 309 308 309 309 307 313 316
310 315 316 314 316 314 315 310 308 306 304 310 308 311 308 307 308 308 309 305 302 304 307 305 307 307 307 308 308 309 309 309 309 308 307 309 310 310 310 308 309 309 317 317 316
312 315 314 314 316 315 313 309 308 307 306 308 307 307 311 306 306 307 307 308 306 305 306 306 308 307 307 306 307 307 308 307 307 307 307 310 311 311 310 309 310 318 316 316 315
314 314 314 313 315 312 311 308 305 304 303 304 309 308 307 309 307 309 307 308 307 308 307 307 309 307 306 306 306 306 307 308 310 309 309 309 311 310 309 314 317 317 315 315 314
314 315 314 314 311 307 306 304 305 302 303 307 303 304 307 307 307 309 308 309 307 310 308 309 309 307 308 308 308 309 308 309 309 310 312 310 312 310 311 313 317 315 316 315 313
316 314 309 307 308 305 304 303 301 299 311 305 302 304 306 308 307 308 310 306 310 307 309 311 309 309 309 309 309 310 310 309 310 310 310 311 312 311 311 316 316 316 316 314 312
310 306 304 304 302 302 302 300 300 303 308 304 306 307 306 307 307 307 309 307 307 307 306 308 306 308 309 309 309 310 310 311 310 311 313 312 311 310 312 316 316 316 316 311 309
303 302 302 302 300 300 300 302 303 305 304 306 308 309 309 308 306 308 307 307 307 307 307 307 307 307 308 308 308 309 310 310 311 313 311 309 311 311 311 315 316 317 312 308 305
304 304 303 302 300 301 302 303 304 302 300 302 304 309 308 307 308 308 308 305 302 308 307 308 308 308 307 310 310 309 310 310 311 312 311 310 312 312 314 316 313 310 307 305 303
301 300 300 300 300 300 301 303 304 303 303 303 311 309 304 305 305 304 304 302 301 302 309 310 309 307 305 305 308 310 311 310 311 311 311 311 311 313 316 315 311 309 306 304 301
297 294 297 300 302 301 302 303 302 301 302 304 308 307 306 304 305 304 304 303 302 303 304 304 305 305 304 306 303 308 309 314 313 312 310 311 312 314 315 313 310 308 306 303 300
298 296 298 300 300 300 302 302 303 302 302 304 305 305 303 303 305 304 303 303 303 303 303 304 304 303 303 303 302 302 305 311 312 313 315 312 313 312 312 310 309 306 304 301 300
298 299 298 300 300 301 301 302 302 302 303 304 304 304 303 303 303 304 303 303 302 302 303 303 304 302 302 302 303 305 308 308 308 310 310 311 313 311 309 307 306 304 302 300 298
299 298 297 299 300 301 301 301 302 303 303 305 304 303 302 302 302 302 301 301 303 302 302 301 301 299 301 303 302 303 303 302 303 304 304 309 309 310 307 305 303 302 300 299 297
297 298 298 299 299 301 301 302 302 301 302 303 304 303 302 301 301 302 301 300 301 304 303 302 301 299 300 302 302 302 302 301 301 304 303 304 303 302 302 305 303 301 299 298 296
299 296 297 297 298 299 300 302 302 301 301 301 302 302 302 301 300 300 299 300 300 301 300 301 301 302 301 301 301 301 301 300 299 299 299 297 299 300 301 303 302 299 297 296 295
299 299 297 298 299 299 300 302 301 300 301 301 301 300 300 300 300 299 299 299 299 299 299 299 302 300 300 300 300 299 299 298 298 299 300 302 304 304 303 301 299 297 296 295 293
298 299 298 297 298 299 300 302 300 299 298 300 299 299 299 298 298 298 297 297 298 299 299 299 299 298 296 299 298 297 299 299 302 304 304 304 304 305 301 299 297 295 294 293 292

GFSSW_850_thetae_102.txt.gz
Theta_e
325 326 326 325 325 325 326 325 324 324 324 324 324 322 319 318 319 316 318 316 311 309 305 304 306 309 311 312 312 312 316 318 320 319 319 316 317 318 319 319 318 318 318 318 316
323 324 327 327 327 325 325 326 326 325 325 324 324 324 322 319 319 321 317 309 308 308 305 308 310 310 311 312 313 314 316 318 318 317 317 316 317 316 316 316 317 317 316 316 315
316 318 324 324 325 325 326 325 325 325 325 325 324 324 322 319 315 312 309 307 307 307 307 309 309 310 311 312 312 313 316 317 315 314 314 315 315 315 316 317 316 316 315 315 315
309 310 312 320 323 324 324 325 324 325 325 325 325 325 321 314 324 310 308 307 305 306 307 308 309 310 312 313 312 311 312 312 313 312 314 315 314 314 314 314 314 313 314 314 314
307 307 307 309 310 317 322 322 322 322 322 322 323 321 316 307 310 313 311 308 308 306 309 309 310 310 311 311 311 312 312 311 311 311 311 311 313 314 314 314 314 314 313 314 314
305 305 306 307 308 312 316 320 320 321 321 319 319 315 308 310 316 318 311 305 306 307 308 308 309 309 309 309 310 312 312 312 313 313 313 313 313 313 313 314 314 314 313 313 313
305 306 306 306 307 317 315 318 318 318 319 316 312 311 306 311 319 317 316 307 308 307 307 307 307 307 309 310 310 311 312 313 313 312 313 313 314 315 314 314 313 313 313 313 313
305 306 307 307 310 315 315 316 316 317 317 314 311 309 308 314 315 318 314 306 306 307 307 307 307 308 310 311 311 312 313 315 315 314 314 313 316 315 314 313 313 314 314 313 313
305 306 307 308 313 313 315 315 314 314 314 312 310 307 309 311 313 313 311 307 305 307 307 308 308 309 311 312 313 313 315 316 315 314 315 315 315 314 313 312 313 313 314 313 314
306 306 309 309 314 312 314 313 314 313 310 308 305 308 311 313 310 308 309 308 305 305 308 308 309 311 312 312 315 316 315 315 315 314 313 314 314 313 311 313 313 314 314 314 317
307 309 314 312 314 316 313 314 309 308 304 311 312 312 314 310 308 309 308 307 304 306 310 308 308 312 312 312 312 312 314 314 314 313 311 312 312 312 314 314 314 314 314 317 318
311 315 314 313 316 314 314 313 311 310 312 310 311 311 311 309 310 309 308 307 304 307 308 309 310 312 312 311 310 311 312 313 312 312 310 312 314 315 315 315 314 314 318 318 318
314 314 313 315 314 314 312 311 312 311 308 312 311 311 312 310 312 313 309 310 309 307 306 309 311 309 310 310 309 310 311 311 310 312 313 314 315 315 313 313 316 317 318 318 317
313 313 315 315 313 312 310 311 310 309 310 313 309 309 309 310 312 312 310 311 310 312 308 307 307 307 310 310 310 310 310 309 311 313 314 314 315 313 313 315 317 318 318 318 317
314 314 315 312 312 308 309 309 306 307 315 311 307 306 308 310 311 311 312 309 312 311 310 312 309 309 309 310 310 310 310 311 312 314 315 314 314 314 313 314 317 319 319 317 315
315 315 315 313 310 308 308 304 304 312 315 311 306 307 309 309 309 310 311 309 310 311 310 312 310 310 310 310 311 311 311 312 313 314 315 314 314 314 314 315 317 319 317 315 312
314 312 309 307 306 304 304 302 307 314 308 311 310 310 309 309 309 310 313 309 311 314 313 312 311 309 310 311 311 311 311 313 313 313 313 312 313 313 314 316 317 319 316 313 311
303 303 302 304 304 303 302 305 312 310 309 305 305 308 311 310 309 310 314 313 311 310 310 310 310 309 310 310 310 311 311 313 313 313 313 313 313 317 319 318 316 314 313 312 309
305 305 304 302 303 302 303 309 311 308 306 306 307 311 311 309 308 309 311 312 309 309 310 310 310 309 308 309 311 311 312 312 312 312 314 313 314 319 317 316 315 313 312 310 308
302 300 300 300 300 301 305 308 305 304 303 304 308 309 312 308 309 309 309 306 305 306 306 308 309 308 307 308 307 313 312 314 314 313 313 312 312 314 317 316 312 312 311 309 307
298 301 299 300 300 301 306 306 304 303 303 306 307 307 307 306 308 309 308 305 304 304 306 306 307 308 306 307 308 309 312 314 314 314 314 313 314 315 314 311 311 310 308 307 305
300 302 300 299 302 302 305 303 302 303 303 305 307 306 306 305 309 308 306 306 304 305 306 305 306 305 305 306 304 304 308 309 310 310 312 315 313 313 312 310 308 307 306 305 303
300 298 299 299 304 304 303 303 303 303 304 306 305 305 304 305 305 307 306 303 304 304 304 304 305 306 305 305 305 305 306 305 306 306 308 309 310 313 310 308 306 305 304 303 301
300 301 298 299 300 303 303 303 303 302 304 305 306 305 304 304 304 305 303 302 304 304 303 303 303 303 304 305 305 304 304 303 304 307 305 306 305 309 306 303 305 305 302 302 300
299 301 300 302 302 303 303 303 304 303 304 303 304 305 306 304 303 303 302 303 302 302 303 303 302 301 302 302 302 302 302 302 301 301 301 301 301 302 305 307 306 303 302 299 297
300 300 299 300 301 302 302 303 303 303 304 303 305 303 304 305 303 302 302 302 302 301 302 302 303 302 300 301 301 301 301 301 301 301 300 301 302 307 305 305 302 301 299 298 296
300 299 300 300 301 302 303 303 303 303 302 303 303 302 302 300 300 300 300 300 301 301 300 300 302 300 298 299 299 299 301 301 301 301 304 306 306 304 305 304 300 298 296 295 294

GFSSW_850_thetae_105.txt.gz
Theta_e
325 325 325 325 326 326 326 325 325 325 326 326 325 325 324 324 324 323 319 319 316 313 309 311 312 312 313 315 315 316 319 322 324 324 324 323 320 320 320 321 321 321 321 321 320
322 322 323 321 323 326 326 326 326 326 325 325 325 325 324 324 324 323 319 316 310 308 307 311 312 313 314 316 317 318 321 322 323 322 322 321 320 320 320 320 320 319 319 319 318
314 314 313 313 315 323 324 324 324 325 325 325 325 325 324 324 320 318 314 309 307 307 310 311 312 313 314 316 317 318 320 322 322 321 319 319 319 318 319 320 319 319 319 319 317
308 308 307 307 308 312 319 321 323 323 324 324 323 323 322 320 327 316 318 313 309 307 310 312 312 314 316 317 317 318 317 317 318 318 317 318 318 318 318 318 317 317 316 316 317
307 306 306 306 307 307 310 313 316 321 321 321 321 320 319 314 317 321 318 316 313 309 312 313 314 315 317 318 317 318 318 317 316 315 315 314 315 316 316 316 316 316 316 316 316
303 304 304 305 306 306 308 314 314 316 319 318 319 318 314 316 319 319 315 316 313 313 313 313 314 315 315 315 316 316 316 316 316 316 315 315 316 315 316 316 316 316 316 316 316
302 303 303 304 306 308 314 311 317 315 316 316 316 315 310 315 318 317 316 313 315 315 315 315 314 313 313 316 315 315 315 316 316 316 317 316 317 317 316 316 316 317 317 316 316
302 302 303 304 305 308 315 312 317 315 316 315 315 312 312 316 315 316 316 312 311 312 313 313 312 311 311 313 314 317 317 318 319 319 318 316 318 320 318 317 317 316 316 316 316
301 302 303 304 305 308 314 315 316 314 314 313 312 310 315 313 313 314 314 314 313 311 311 312 310 312 312 314 315 318 318 320 321 321 318 318 318 319 318 316 316 316 316 316 316
301 302 303 305 307 311 314 312 315 314 312 312 309 310 313 315 316 312 312 312 313 312 311 312 311 315 315 315 319 321 321 321 320 321 318 319 318 318 317 316 315 316 316 316 315
303 304 306 309 313 313 315 314 312 311 307 313 314 313 316 315 313 312 314 313 311 310 312 312 314 316 317 318 317 318 319 322 320 320 318 317 317 318 317 315 315 316 316 316 317
308 311 310 314 315 313 314 314 314 313 315 313 313 313 314 314 314 314 313 312 313 314 314 313 314 315 316 315 315 317 317 318 318 318 317 316 316 316 316 316 316 317 316 317 319
312 313 314 313 314 313 314 312 312 312 312 313 314 314 314 313 314 314 314 313 314 314 314 315 315 313 313 314 314 316 316 315 316 316 316 315 315 316 317 317 316 315 317 319 319
314 314 314 313 313 314 313 312 312 313 313 314 314 313 313 313 315 313 314 315 314 315 314 314 314 314 312 313 313 314 314 313 314 315 314 316 317 318 318 316 316 318 319 319 319
315 313 313 312 313 311 312 312 311 311 317 312 314 310 311 313 313 313 313 314 315 314 313 315 312 312 313 313 311 314 312 313 314 312 314 316 317 318 316 316 317 319 319 319 317
315 314 313 313 312 312 312 311 310 312 314 313 311 310 311 313 313 311 312 314 313 312 312 314 313 312 312 310 309 311 312 312 314 314 316 316 317 318 316 316 317 319 319 318 316
316 314 314 314 313 312 310 307 309 315 312 314 311 311 311 313 312 312 313 314 314 315 315 314 314 312 311 313 311 311 314 315 316 317 319 316 316 316 316 316 318 320 318 317 315
314 314 311 312 313 309 307 308 313 314 314 310 310 311 313 313 313 312 313 315 313 313 316 318 318 313 311 311 314 313 313 314 317 315 315 313 315 319 319 320 319 317 317 315 313
305 304 305 305 306 306 305 312 315 314 312 310 309 311 313 312 313 313 312 315 313 313 315 314 313 312 311 311 311 314 315 312 314 314 316 317 318 320 318 318 317 316 315 313 311
305 305 302 303 303 303 306 312 313 310 308 307 309 311 313 313 313 311 311 313 314 313 312 312 314 311 311 310 311 312 314 313 314 318 315 316 317 319 319 318 316 313 312 310 309
303 302 300 301 301 301 311 311 310 307 306 307 309 312 311 312 312 311 313 309 311 309 309 310 311 311 309 310 310 311 316 314 315 315 316 316 319 318 318 315 313 311 309 307 306
302 306 300 300 302 302 308 308 305 307 305 307 308 309 309 310 310 313 312 310 307 308 310 310 311 312 310 309 308 308 310 312 315 314 316 314 315 315 314 312 309 308 307 306 305
302 300 299 300 306 305 306 306 305 306 306 307 308 308 308 309 309 312 310 307 307 309 310 308 309 310 309 308 308 308 308 309 309 310 309 311 313 314 312 310 307 305 307 306 304
302 304 298 298 300 306 305 306 305 305 306 307 308 307 308 308 308 310 309 307 305 306 304 304 307 309 309 308 309 307 307 307 307 310 308 308 307 311 306 305 308 308 306 305 302
303 305 303 304 303 305 306 306 306 306 305 305 308 307 308 308 307 308 307 306 305 303 304 306 306 305 304 304 304 305 306 306 305 305 304 304 303 303 307 308 308 305 304 302 300
301 303 303 304 303 304 305 307 306 306 306 306 307 307 308 308 306 306 306 306 304 304 304 304 305 304 304 303 303 302 303 303 303 303 303 303 302 307 306 306 304 302 301 299 297
301 302 302 303 304 305 306 305 306 306 305 306 306 306 307 306 304 305 304 304 304 305 304 304 305 303 302 301 301 301 303 303 303 303 303 304 307 304 304 301 299 299 297 296 294

GFSSW_850_thetae_108.txt.gz
Theta_e
324 325 325 325 324 324 323 326 325 326 326 326 325 325 325 325 324 325 323 323 321 320 316 310 314 315 316 315 316 318 319 321 322 324 325 325 325 322 322 322 322 322 322 322 322
321 320 320 320 319 318 318 323 324 324 324 324 324 325 325 324 324 324 323 321 317 311 311 311 315 316 315 316 318 319 320 321 323 324 324 324 322 322 321 321 322 321 321 321 321
313 313 312 311 310 309 310 314 318 322 322 323 323 324 324 323 321 316 315 312 311 315 314 314 315 316 317 317 318 319 320 320 321 322 322 322 321 321 321 321 320 321 320 320 320
308 307 307 307 307 307 307 307 312 316 316 321 321 321 321 321 324 321 322 322 322 320 316 314 316 316 318 319 319 320 319 320 320 320 319 319 319 319 320 320 320 320 319 318 318
305 305 305 305 305 305 305 306 307 311 316 314 317 318 318 316 319 319 321 320 320 320 318 316 316 317 318 319 320 321 321 320 320 319 319 318 317 318 318 317 318 318 318 318 317
302 302 303 303 303 304 305 307 307 308 317 314 314 316 314 315 316 320 320 318 318 315 315 317 317 318 318 319 319 318 318 318 317 317 317 318 318 317 317 317 317 317 317 317 317
301 302 302 302 302 303 304 306 310 312 315 316 313 315 311 314 312 316 318 317 314 316 316 317 317 317 318 319 318 318 318 318 318 318 318 318 319 319 319 318 318 318 317 317 317
301 301 301 302 302 303 304 306 313 313 316 316 314 313 311 312 315 315 316 317 318 314 314 315 316 316 316 316 316 317 318 320 320 320 320 319 320 319 319 319 319 318 318 318 317
300 300 301 301 302 304 305 308 315 313 315 314 314 310 313 314 315 315 316 316 318 316 314 314 315 315 315 316 318 318 320 321 322 322 321 322 322 321 319 319 319 318 318 317 317
299 300 301 302 304 307 310 313 315 314 314 313 312 310 312 312 315 316 314 316 316 316 316 314 314 316 316 316 321 319 320 321 323 322 323 322 323 321 320 320 318 318 317 317 317
299 301 303 306 309 310 311 314 312 312 310 314 314 313 314 315 314 314 314 315 314 315 316 315 316 316 315 316 317 318 318 319 320 320 321 322 320 320 320 319 318 317 317 317 317
299 301 307 312 311 312 312 314 313 314 315 314 314 314 313 313 314 313 314 314 314 315 315 314 315 314 314 315 316 317 319 319 319 318 319 320 319 318 319 319 318 317 316 317 317
299 302 311 314 313 313 312 313 313 313 314 313 313 314 314 314 315 314 315 314 315 315 315 315 315 315 315 315 315 315 317 317 318 317 316 317 319 319 319 318 317 317 316 317 319
300 305 315 314 315 313 312 313 312 313 315 313 314 314 314 315 315 315 315 315 316 316 315 315 315 315 314 315 314 316 315 316 316 316 319 316 322 318 317 317 317 317 317 320 319
301 310 316 314 313 312 312 311 313 311 314 310 313 313 314 314 315 315 315 314 316 316 316 316 315 315 314 314 314 315 314 315 316 316 315 316 317 316 316 317 318 319 320 320 318
303 314 315 314 313 312 311 312 312 314 314 311 313 314 314 314 315 314 313 314 315 316 317 316 315 315 315 314 314 313 313 314 314 315 318 316 315 317 318 318 317 320 320 318 317
309 315 314 314 313 312 311 311 312 315 311 311 313 313 312 314 314 315 314 315 316 317 317 316 315 315 313 314 312 312 313 316 317 318 317 315 316 317 317 319 318 321 319 317 315
313 315 314 313 313 313 310 310 316 311 311 313 313 313 313 313 314 314 314 313 315 314 315 315 317 315 314 313 314 312 313 315 318 319 316 315 320 318 320 320 319 318 317 314 312
310 311 313 312 309 309 308 313 314 313 313 314 313 313 313 313 314 314 315 314 314 314 316 315 316 315 314 313 313 315 315 313 314 314 319 319 317 317 320 319 317 317 314 311 310
305 305 306 307 307 306 306 312 314 314 314 314 314 313 313 313 314 315 314 314 313 315 314 315 315 314 314 312 312 314 314 317 315 318 319 316 318 322 320 318 315 313 310 308 307
304 303 304 304 303 303 308 311 312 313 312 311 312 312 313 313 314 316 316 313 313 315 313 314 312 314 312 312 311 312 313 315 316 315 318 317 322 316 315 314 313 311 308 307 306
302 304 302 301 301 301 307 311 310 312 309 308 309 311 312 312 312 312 314 313 313 314 315 313 312 313 312 311 310 311 311 314 319 318 317 317 318 314 311 312 310 308 307 306 305
302 299 300 300 304 305 306 309 309 308 309 308 308 309 310 311 311 312 313 309 309 309 309 311 312 311 313 311 309 309 311 311 311 311 310 311 311 313 312 310 309 308 307 305 304
300 303 298 298 300 306 306 308 310 306 308 308 308 309 309 310 309 311 312 309 308 309 305 307 309 311 313 311 310 310 309 309 309 311 310 309 311 312 308 308 309 307 306 303 301
300 303 302 301 301 304 308 307 308 308 306 307 308 309 309 309 309 310 311 309 307 304 306 307 308 309 308 306 306 307 307 307 306 306 308 306 305 308 308 309 306 305 303 301 299
301 304 304 305 302 304 307 309 308 307 307 306 309 309 308 309 309 309 310 308 307 305 306 306 308 308 307 306 305 304 304 304 305 305 304 303 304 306 304 303 302 301 300 298 297
300 303 304 305 306 306 307 307 308 307 307 306 308 308 308 308 307 307 307 307 306 305 306 305 307 305 305 305 302 302 304 303 304 304 305 304 306 304 301 299 298 298 296 295 293

GFSSW_850_thetae_111.txt.gz
Theta_e
325 325 324 323 322 323 321 321 319 321 323 323 323 324 323 324 323 321 322 323 323 323 321 313 314 314 315 316 316 315 312 315 315 317 318 321 320 321 322 321 322 322 322 322 322
320 319 318 317 315 315 314 313 313 315 319 321 321 321 323 323 322 317 319 319 315 311 316 319 314 316 315 315 316 313 312 315 315 317 318 319 319 318 319 319 321 321 321 322 322
314 313 312 311 309 308 307 307 307 307 312 313 317 318 319 321 319 319 316 313 316 322 322 319 320 315 315 316 317 316 315 316 318 319 319 319 318 319 317 318 319 320 321 321 320
308 307 307 307 306 306 306 306 306 306 308 315 311 312 314 318 319 318 321 323 321 320 320 320 315 315 315 315 318 316 318 318 318 319 319 318 319 318 317 317 318 318 318 319 319
304 304 304 303 303 303 304 304 305 306 306 307 316 314 313 315 315 310 313 314 319 319 320 317 315 316 315 316 317 317 317 319 318 318 317 317 316 317 318 318 317 317 317 317 318
301 301 301 302 302 302 302 303 304 305 309 309 315 315 313 311 309 317 319 320 320 319 316 315 316 317 317 317 316 318 318 318 318 317 317 317 317 317 316 317 317 317 317 317 317
300 301 301 301 301 301 302 302 303 305 313 311 314 314 312 312 309 309 318 318 317 314 314 316 316 317 317 317 318 317 315 315 315 316 315 317 316 317 318 318 318 318 318 317 317
300 300 300 300 301 301 302 303 304 305 314 311 313 313 311 310 312 311 311 313 316 318 315 314 315 314 315 316 315 315 314 315 315 316 317 317 319 318 319 318 317 318 318 318 317
299 299 299 300 301 302 303 304 306 310 315 311 313 312 311 313 313 312 314 316 316 317 317 315 313 314 315 313 313 314 316 315 316 316 317 318 319 319 319 319 318 318 318 318 318
298 298 299 301 302 305 307 308 309 313 313 311 312 310 311 312 314 316 315 316 316 317 317 315 314 311 312 312 316 314 315 315 315 315 317 318 318 318 319 319 317 318 318 318 317
297 298 299 302 305 312 311 310 311 311 310 312 310 313 313 315 313 315 314 314 315 316 315 316 313 312 313 314 314 314 315 314 315 316 317 317 317 315 315 317 317 316 317 317 317
297 298 299 303 310 311 312 311 311 312 313 313 313 312 312 312 313 314 314 314 314 313 313 313 314 313 313 313 313 313 313 314 314 315 315 315 315 314 314 316 317 317 317 317 320
297 298 300 305 313 311 311 311 312 313 312 312 312 314 314 313 314 313 313 314 313 313 313 313 314 314 313 313 313 313 314 314 313 313 314 314 315 315 315 316 317 318 316 317 319
297 299 302 311 314 312 311 311 311 312 309 313 312 313 314 314 315 314 314 314 313 314 313 313 313 314 314 314 313 314 313 314 315 316 317 313 318 314 314 314 316 318 316 317 317
297 298 303 311 312 311 311 310 311 312 312 310 311 314 314 314 315 315 315 315 314 314 314 315 314 313 315 315 313 314 313 313 314 314 315 314 316 314 314 314 316 317 317 316 315
297 298 303 313 313 312 311 311 312 313 313 311 312 314 314 314 314 314 314 314 314 314 313 314 314 315 315 314 313 313 313 312 313 314 316 313 315 314 312 316 317 318 317 315 312
299 301 306 312 312 312 311 312 312 313 311 309 312 314 314 314 314 314 314 313 314 315 315 315 315 313 314 314 312 311 312 313 312 316 314 312 316 314 314 317 319 319 314 311 310
303 310 312 313 312 313 311 310 313 311 311 311 311 312 312 312 312 314 314 313 312 314 313 315 314 314 313 314 313 311 310 312 316 315 318 315 318 317 319 317 314 312 310 309 308
307 310 311 312 313 312 311 312 312 312 311 311 310 310 311 312 312 312 313 313 313 313 314 315 314 314 313 313 312 314 313 311 314 312 313 313 317 318 312 316 313 311 309 307 306
305 307 309 309 310 309 310 311 311 312 311 314 315 313 312 311 311 313 315 314 314 314 312 314 315 314 315 313 312 313 312 314 314 315 317 315 319 314 311 309 310 308 307 306 305
304 304 305 306 306 306 309 309 311 311 311 314 314 314 313 313 312 315 316 314 312 313 313 313 313 313 313 314 313 313 314 315 315 317 317 318 320 308 307 308 308 307 305 303 303
303 303 304 304 303 300 306 308 310 311 311 313 311 312 312 312 312 312 315 314 310 312 315 314 313 312 312 312 312 311 312 313 315 316 315 316 318 310 309 308 309 306 303 302 301
302 300 301 302 304 304 304 307 309 311 312 311 309 309 309 310 311 311 312 311 309 310 315 313 312 313 311 311 311 310 310 313 313 313 313 312 314 312 311 309 306 303 302 300 299
300 300 298 299 299 304 305 306 309 309 309 310 308 308 309 310 310 310 312 309 308 309 306 309 311 310 310 312 310 309 309 310 311 308 309 308 313 311 309 307 305 302 300 298 296
300 301 299 299 300 302 305 307 307 310 308 308 309 308 309 309 309 308 310 310 308 305 306 308 308 309 309 310 307 306 307 308 309 307 307 307 309 308 305 303 302 300 298 297 295
299 302 302 302 301 301 303 309 308 308 308 307 308 309 308 308 308 309 311 309 307 305 307 307 308 307 308 308 305 304 304 303 304 304 304 306 306 302 301 300 298 297 296 295 293
299 302 302 301 303 302 301 304 307 307 308 307 306 308 309 308 308 306 308 308 307 304 305 305 305 306 307 307 305 302 305 306 307 305 307 306 305 300 298 297 295 295 294 293 291

GFSSW_850_thetae_117.txt.gz
Theta_e
325 324 323 322 321 320 318 316 313 311 310 308 307 306 306 306 306 306 306 308 312 319 318 318 317 315 315 315 316 315 309 310 313 314 315 316 315 317 317 318 318 319 318 318 322
323 321 320 319 317 316 314 311 309 307 306 306 306 306 306 306 306 308 315 315 315 315 319 322 320 319 316 314 314 311 308 310 311 313 313 315 315 316 316 316 317 318 318 318 318
320 318 317 315 313 311 309 307 306 306 306 305 305 305 305 306 306 314 312 313 318 319 318 318 318 317 314 314 314 311 311 310 313 315 316 315 316 317 315 315 316 316 317 317 317
317 314 312 310 308 306 305 305 304 304 304 304 304 305 305 306 306 317 312 314 317 319 313 317 316 314 313 313 314 314 313 315 315 316 316 315 316 315 316 316 317 317 317 316 316
311 309 307 305 305 303 303 302 302 302 303 303 303 304 306 310 306 309 314 316 319 320 313 318 316 315 314 313 315 315 315 315 315 315 315 316 314 315 315 317 317 317 317 317 318
306 304 303 302 301 301 302 301 301 302 302 303 304 306 307 310 307 309 308 309 312 311 318 317 316 315 315 314 314 315 314 314 314 315 315 314 314 315 315 316 316 317 317 317 317
301 300 300 300 300 300 301 301 301 302 302 303 308 311 308 306 306 307 310 311 315 317 318 315 314 314 314 312 314 314 313 312 313 314 313 314 312 312 314 316 316 316 316 316 316
299 299 299 300 300 300 300 301 301 302 302 308 312 310 308 305 306 307 307 308 310 317 317 315 314 314 313 314 313 313 312 313 312 313 313 314 314 313 316 314 314 315 315 315 315
299 299 299 299 299 299 300 301 302 303 309 309 310 309 309 308 309 311 310 310 309 312 318 316 316 315 313 312 311 311 312 312 312 312 312 312 313 314 314 313 314 315 314 314 314
298 298 298 298 298 299 301 301 306 307 308 309 309 307 307 307 313 313 313 311 313 312 315 315 314 310 309 310 311 311 312 311 312 310 310 311 312 312 312 313 313 313 313 312 314
298 298 298 297 298 299 301 307 306 307 307 308 309 309 310 312 313 313 314 314 315 315 314 312 310 311 312 310 311 312 312 312 310 310 311 311 311 311 311 312 311 312 312 312 317
298 297 297 297 299 302 309 309 308 310 310 309 308 309 307 310 309 313 315 315 314 314 312 313 313 312 311 310 311 312 312 313 312 311 310 309 311 311 310 310 311 311 311 315 316
298 297 297 298 302 303 308 306 312 311 310 310 309 310 310 308 309 309 313 314 312 312 313 314 314 313 313 312 312 312 313 313 312 312 311 311 311 310 310 310 311 311 312 313 316
298 298 298 300 304 306 308 306 310 311 303 307 311 311 310 311 311 308 312 314 311 312 311 311 312 312 312 312 312 313 310 312 313 312 311 311 313 311 309 311 314 314 312 312 309
299 299 299 299 305 306 309 309 311 310 298 307 312 311 312 313 312 313 310 313 311 311 310 311 312 311 312 312 310 312 312 312 312 312 311 311 311 309 311 314 315 312 309 307 306
299 299 301 301 307 304 308 310 311 301 297 307 313 313 313 313 313 313 311 312 312 311 311 310 312 310 310 311 311 311 311 310 310 309 308 310 310 308 312 309 310 312 308 306 304
300 299 301 302 303 307 310 311 309 302 305 307 312 314 314 313 313 312 312 311 312 313 312 312 312 311 313 313 310 310 314 318 313 311 312 310 310 312 308 306 307 306 303 301 300
299 300 301 301 302 306 311 310 308 308 307 308 311 313 314 313 313 313 312 312 310 311 311 313 313 313 312 313 313 310 311 314 314 312 311 310 308 312 307 305 303 301 301 300 299
299 301 303 305 304 307 309 310 307 307 308 308 307 308 310 312 312 312 311 313 312 310 311 313 313 311 312 311 311 310 310 309 312 311 309 309 311 309 307 305 302 302 300 300 301
300 303 304 308 305 309 309 309 308 307 309 310 308 308 308 307 311 311 311 311 312 310 310 312 313 312 312 311 311 310 309 311 310 312 313 311 312 308 308 306 305 302 299 298 298
302 303 304 307 308 308 308 307 307 308 308 309 309 310 312 312 309 310 310 312 311 311 310 310 312 312 313 313 312 312 311 311 310 309 312 314 309 303 308 307 305 302 299 297 296
302 304 302 305 305 303 307 307 307 308 308 308 310 311 310 311 311 310 313 312 311 311 312 312 313 315 313 311 311 311 312 311 307 309 312 304 306 309 308 307 304 303 299 296 295
301 301 302 305 305 303 304 306 307 307 307 309 309 309 310 310 311 310 310 310 309 311 311 311 312 312 313 311 310 313 312 312 311 310 312 310 309 309 308 307 303 299 297 295 294
300 300 299 302 301 302 304 306 307 307 307 309 309 309 309 309 308 310 310 310 309 309 312 312 311 311 311 311 310 312 312 312 312 312 311 310 311 310 309 302 298 296 295 294 293
300 299 300 299 300 303 303 304 304 307 307 308 308 309 308 309 308 309 310 308 306 311 309 308 310 309 310 310 310 310 311 311 312 311 310 308 309 309 305 301 297 295 294 293 292
297 299 299 299 300 302 302 304 304 304 306 308 308 308 308 308 308 307 309 308 307 306 306 305 307 307 308 309 310 309 307 303 308 310 310 308 309 304 300 297 296 295 293 292 291
298 298 300 300 298 301 301 302 303 303 304 304 306 306 307 307 306 306 307 308 307 305 304 305 306 308 310 309 311 311 306 305 305 304 306 307 305 301 299 297 295 294 292 290 289

GFSSW_850_thetae_120.txt.gz
Theta_e
325 325 324 323 322 321 319 317 316 313 311 308 307 306 305 306 306 306 307 307 311 312 319 316 318 318 316 315 315 313 308 311 313 313 314 314 313 316 317 316 317 317 317 317 317
324 324 323 322 320 318 316 314 312 309 307 306 305 305 305 305 306 309 315 310 316 317 315 321 321 319 317 314 314 310 308 310 310 311 313 313 314 316 316 316 316 317 318 318 318
324 322 320 319 318 315 312 310 307 306 305 305 305 304 305 305 305 312 314 314 315 316 319 319 318 318 315 313 312 309 309 309 312 313 315 314 315 316 315 314 317 317 317 318 317
322 321 318 316 313 311 308 306 305 304 303 303 304 303 304 305 304 315 312 313 315 317 318 315 315 315 312 312 313 313 312 313 314 315 314 313 315 314 315 316 316 316 315 316 317
319 316 314 311 308 306 304 303 303 302 302 302 303 303 304 306 305 308 313 314 315 316 318 316 316 314 313 313 314 314 314 315 315 314 314 314 313 313 314 315 314 315 315 315 315
314 311 308 305 303 302 302 302 302 302 302 302 302 303 305 308 306 306 307 311 314 315 314 316 316 315 314 314 313 314 314 313 314 314 314 312 312 313 313 314 314 313 312 312 313
308 306 303 301 301 300 301 301 301 301 301 302 302 304 306 305 306 307 310 310 309 310 314 317 313 314 314 312 313 313 312 311 312 312 312 312 310 311 313 314 313 312 312 312 312
303 301 300 300 300 300 300 301 301 301 301 302 305 307 305 305 305 306 306 306 308 308 316 317 314 314 313 313 312 312 310 312 310 310 312 312 311 311 313 312 312 312 312 313 312
300 299 299 299 299 299 300 300 300 301 304 310 307 308 307 306 308 309 311 310 309 308 314 316 315 315 313 310 310 309 310 311 311 310 310 310 311 312 313 312 311 312 312 312 312
299 298 298 298 298 299 299 300 303 306 307 309 309 307 305 306 312 311 312 311 311 309 314 315 314 309 307 309 310 310 312 310 310 309 308 310 311 310 311 311 311 311 311 311 311
298 298 298 298 298 298 299 302 305 306 306 306 307 307 308 310 313 312 313 311 314 313 313 312 311 311 312 309 309 310 310 310 308 309 310 311 311 309 310 311 310 309 310 310 314
299 298 298 297 297 299 300 304 306 309 309 307 306 307 307 309 309 313 314 313 314 313 311 311 312 310 310 309 311 311 312 311 310 310 310 309 309 309 308 310 311 310 313 313 311
299 298 298 298 298 299 301 304 310 309 309 308 308 308 308 306 308 308 313 314 312 312 312 312 313 312 312 311 311 311 312 312 312 310 309 309 310 308 309 312 312 308 308 308 307
299 299 299 298 300 300 305 304 309 309 300 304 310 310 309 309 309 307 306 313 311 312 311 313 312 312 312 313 312 313 310 311 311 311 310 310 312 311 310 310 312 308 306 305 303
299 299 299 299 303 304 308 308 310 308 297 306 311 310 310 310 311 312 308 312 310 310 310 311 311 311 311 311 310 311 310 311 311 311 310 311 310 308 308 309 311 307 304 301 300
300 299 299 300 300 301 308 310 310 297 296 308 311 311 311 312 312 311 310 312 311 310 310 309 310 309 310 310 309 310 311 309 308 307 312 310 310 307 309 308 307 303 301 300 300
301 301 299 300 299 304 308 310 307 299 302 307 313 313 312 312 311 311 310 310 310 311 311 311 310 310 311 312 310 310 312 313 311 311 313 309 309 309 307 306 305 303 300 302 302
301 300 300 300 299 302 309 310 307 302 303 306 312 313 313 312 311 311 309 309 308 310 310 311 310 310 311 311 311 308 311 316 315 311 309 308 309 311 306 304 303 302 300 300 300
301 300 299 299 300 302 308 309 304 305 307 306 305 309 311 312 311 312 311 309 309 308 311 311 312 311 311 310 311 311 314 311 313 310 311 308 309 307 307 304 303 303 301 300 298
300 300 300 300 303 304 307 307 306 306 307 308 305 304 305 307 312 311 310 310 311 309 308 310 312 311 311 310 309 309 308 311 311 315 313 309 309 308 307 306 302 302 300 298 297
299 301 302 302 304 305 306 305 305 307 307 307 308 310 311 311 309 309 311 310 310 309 309 309 310 311 311 312 311 310 311 310 310 311 311 312 308 302 307 305 302 301 300 297 296
300 302 302 304 305 304 305 305 305 306 307 307 309 309 309 310 311 311 311 310 310 309 310 309 310 312 312 311 310 311 312 311 313 310 309 303 306 307 306 305 304 303 299 296 295
300 301 302 305 305 305 304 306 305 306 306 307 307 309 309 310 310 309 309 310 310 310 311 312 311 313 309 309 309 312 311 311 311 310 312 308 308 307 307 307 304 302 298 295 293
300 300 300 301 303 303 305 305 307 306 306 307 308 308 308 308 308 309 309 309 308 309 311 310 310 311 311 309 309 311 311 312 313 314 312 310 309 307 308 307 300 296 295 294 292
300 300 300 300 302 303 304 304 305 306 307 307 308 308 307 308 308 307 307 308 306 308 310 308 311 310 310 310 310 310 310 311 314 313 313 310 309 309 308 303 296 295 294 293 292
298 299 298 298 301 303 302 303 303 304 305 307 307 306 307 308 307 307 307 307 307 308 307 305 307 307 308 309 310 310 309 309 310 312 311 309 308 307 301 297 295 294 293 292 291
298 299 299 298 298 302 302 302 302 303 303 304 305 306 307 306 306 306 306 306 307 307 304 306 306 307 310 307 307 311 309 307 305 304 307 310 307 300 298 297 295 294 293 291 290

GFSSW_850_thetae_123.txt.gz
Theta_e
325 325 325 324 323 322 321 320 318 317 316 313 310 308 306 305 306 306 307 308 310 312 313 316 315 319 316 315 314 313 317 320 319 316 318 314 317 316 317 316 317 317 317 318 318
325 325 324 324 323 321 320 318 316 313 311 308 306 305 305 305 305 306 311 313 310 312 317 319 321 320 317 314 314 314 317 318 313 313 315 315 316 316 317 318 317 317 317 317 317
325 324 324 323 322 320 317 315 311 309 306 305 304 304 304 304 305 310 315 314 315 316 317 320 320 318 316 314 312 310 316 312 313 312 314 315 316 315 317 317 317 317 315 316 317
323 322 322 322 320 318 315 311 307 305 304 303 303 304 304 304 305 313 313 314 316 317 317 316 315 314 314 315 312 314 312 312 315 315 314 315 314 315 315 315 315 314 315 314 314
322 321 320 319 318 313 311 307 304 303 302 303 303 303 304 305 305 306 312 313 315 316 317 317 316 313 314 314 315 315 314 314 314 314 314 313 314 314 314 314 313 313 313 312 312
320 320 318 315 312 309 305 304 302 302 301 302 302 303 303 306 306 305 306 311 313 315 315 315 315 315 314 314 315 313 314 313 313 314 312 313 313 313 312 312 312 312 312 312 312
316 315 312 309 306 304 302 301 301 301 301 302 302 302 303 304 305 306 307 307 308 311 310 313 314 314 314 314 312 313 314 313 312 312 312 311 311 313 313 313 312 312 312 312 311
310 308 306 303 302 300 300 300 301 301 301 301 302 302 303 304 305 305 306 307 309 311 314 316 313 314 314 312 312 313 312 312 311 312 311 312 312 312 312 312 312 312 312 311 310
306 304 302 300 300 299 299 300 300 300 301 302 304 304 305 305 307 307 305 307 308 307 310 316 315 314 312 313 313 312 311 312 312 310 312 312 313 312 312 312 311 311 310 309 311
303 301 299 299 299 299 299 299 300 302 305 304 306 306 304 305 309 310 312 311 310 308 312 315 313 314 311 314 311 310 313 312 312 311 312 313 313 312 312 310 310 312 312 311 310
303 301 299 298 298 298 299 301 303 305 306 304 306 305 307 310 311 312 313 313 310 312 314 312 316 316 315 313 310 310 311 312 312 312 312 313 313 312 311 313 311 312 311 309 306
304 302 299 298 298 298 299 302 305 308 307 304 305 305 306 309 310 312 313 312 313 313 312 313 316 314 311 311 312 313 314 315 313 312 313 313 313 312 313 312 308 308 307 306 305
305 302 299 298 298 298 299 302 308 308 308 306 306 306 306 305 307 307 313 313 313 313 313 314 312 312 312 312 313 313 314 314 314 313 311 312 312 314 311 311 308 307 306 304 303
304 300 299 298 299 299 300 300 308 308 304 304 308 309 307 307 307 305 310 314 312 314 313 314 313 313 314 314 313 315 312 313 313 313 315 312 315 313 311 311 308 306 302 301 301
301 299 299 298 300 303 305 303 309 307 302 306 309 309 309 308 310 311 307 312 312 312 312 312 312 312 314 314 312 313 311 312 312 313 313 313 315 313 309 310 307 305 302 301 302
300 299 299 299 300 304 308 308 308 303 300 309 310 311 310 311 312 309 309 310 311 311 311 310 309 310 312 310 311 310 312 311 311 313 315 314 314 313 310 309 306 304 302 301 301
301 301 299 299 298 304 309 310 307 303 302 309 312 312 311 312 312 309 311 312 313 313 314 311 312 311 311 313 311 312 314 314 315 314 315 310 313 314 308 307 308 305 302 300 300
302 301 301 300 299 304 309 310 306 301 302 305 313 313 313 312 311 312 310 312 310 309 311 313 311 311 311 312 313 312 313 314 315 314 312 310 314 313 308 305 304 303 303 301 298
302 301 301 301 300 302 307 308 306 305 306 304 308 313 313 312 311 312 310 310 311 310 311 312 312 310 311 310 312 313 315 313 315 312 315 313 311 308 307 305 304 304 303 300 297
301 301 301 300 299 302 306 307 306 305 307 308 303 305 307 310 312 313 313 311 311 310 309 311 313 311 311 311 310 313 311 315 316 317 315 312 312 314 309 306 306 305 303 299 298
301 300 300 300 299 302 306 306 305 306 307 307 308 310 310 308 311 311 312 311 311 310 310 311 312 312 312 314 314 312 313 312 313 314 315 313 314 309 310 307 305 303 301 299 297
300 301 301 300 302 302 304 305 304 305 305 306 308 309 309 310 310 310 311 309 310 309 311 311 313 315 313 311 311 312 314 313 315 314 312 311 314 309 309 308 305 303 301 299 296
300 300 302 303 303 303 302 303 304 306 306 306 307 309 309 310 309 310 310 309 310 311 312 312 313 315 314 313 312 314 313 313 313 312 314 314 312 308 307 307 304 303 300 297 294
299 301 300 302 302 304 302 303 304 304 304 305 307 307 308 309 309 310 309 309 308 309 311 311 312 313 314 312 312 313 313 313 314 315 314 314 312 310 308 307 305 303 299 295 293
299 301 300 301 302 303 303 304 304 304 305 305 306 307 308 308 308 308 308 308 307 308 310 311 312 311 312 310 311 311 311 312 313 313 313 312 312 311 309 308 306 299 295 294 292
298 299 299 299 302 302 302 303 303 304 305 307 307 306 307 308 308 307 308 308 309 308 310 307 311 310 311 310 311 312 311 311 311 312 313 313 313 309 308 307 298 296 295 294 292
299 299 300 299 301 303 303 303 303 303 304 304 306 306 307 307 306 306 306 306 307 308 307 307 309 309 311 309 310 312 310 310 310 310 310 311 311 305 303 301 299 296 295 293 292

GFSSW_850_thetae_126.txt.gz
Theta_e
324 324 325 325 325 324 324 323 322 321 318 316 312 311 308 306 306 306 308 309 309 308 309 313 315 318 316 318 317 317 325 324 325 324 323 319 321 320 320 320 321 320 320 319 319
324 324 325 325 325 324 323 323 321 319 316 313 310 307 305 305 305 306 309 313 310 311 314 317 318 320 320 318 318 321 324 323 320 320 321 320 319 320 319 320 320 320 319 318 318
324 324 325 324 324 323 323 322 320 317 312 308 306 305 304 304 306 311 315 311 312 315 317 319 319 320 321 319 318 319 322 320 318 317 318 319 319 318 319 319 318 318 316 317 317
323 323 324 323 322 322 321 319 317 312 309 305 304 304 304 304 309 311 314 315 316 316 317 317 319 320 319 319 317 318 317 316 317 317 318 319 318 318 316 316 315 316 315 315 315
324 323 322 322 321 320 318 316 313 307 305 303 303 303 303 308 308 306 309 313 316 317 317 317 318 317 316 315 316 317 317 317 317 317 317 317 316 316 315 315 315 315 315 315 315
322 322 320 319 319 317 314 310 306 303 303 302 303 303 304 308 306 305 305 310 314 315 315 316 317 316 316 317 318 317 317 317 316 315 315 315 315 314 315 315 315 315 314 314 315
320 320 319 317 315 311 307 305 303 301 301 302 302 302 303 306 305 305 306 307 310 311 314 314 314 314 316 317 315 315 316 316 315 314 315 314 315 316 315 315 314 314 314 314 314
314 315 314 312 309 306 303 301 301 300 300 301 302 302 307 304 305 305 305 307 308 309 313 314 315 316 316 315 315 316 315 315 315 314 314 314 314 315 315 314 314 314 314 314 312
308 308 308 307 304 301 300 300 300 300 301 301 303 305 308 305 305 305 305 308 308 309 313 316 315 315 314 316 316 316 314 315 314 313 314 314 314 314 314 314 314 315 315 314 311
307 306 305 303 300 299 299 299 300 300 301 302 307 306 305 307 309 309 309 310 312 310 313 314 315 316 316 317 315 314 315 315 314 315 314 314 315 315 314 314 316 316 315 313 310
306 306 304 302 299 299 299 301 306 309 307 307 309 307 308 309 310 313 312 313 312 312 313 315 316 316 316 316 315 314 313 314 314 315 315 315 315 316 315 316 316 315 313 311 309
308 306 303 300 299 299 301 307 306 309 308 307 305 307 306 309 312 313 312 313 313 313 314 316 315 315 315 315 315 314 315 315 314 315 315 315 316 316 316 314 313 312 310 309 308
306 305 303 299 299 299 301 306 304 304 308 307 307 307 307 306 307 311 313 314 314 313 315 313 315 314 315 315 314 315 315 314 314 315 315 315 316 317 316 312 311 309 308 307 306
305 305 301 299 299 304 305 301 303 303 308 307 308 309 308 307 308 307 313 312 314 312 313 314 313 314 315 314 315 313 314 314 314 315 316 315 314 317 316 315 313 310 308 307 306
305 304 301 298 302 304 302 300 306 306 307 307 309 309 310 306 310 309 310 313 312 314 314 314 315 315 315 314 314 313 314 314 314 316 316 315 316 316 316 316 314 311 307 306 305
304 303 300 300 302 305 305 302 308 308 305 310 311 312 311 309 313 311 308 311 311 314 314 313 312 313 314 314 314 314 314 315 316 315 316 314 315 315 316 315 314 311 308 306 304
302 302 299 300 300 307 307 308 309 308 304 310 313 313 313 311 314 312 310 311 313 314 314 313 313 313 313 314 314 315 315 316 315 317 314 314 315 315 315 313 313 311 308 305 303
302 300 299 299 298 307 309 310 307 304 304 309 313 314 313 312 314 312 312 312 312 312 314 315 315 314 313 313 314 315 315 315 313 313 314 313 315 317 314 311 310 309 307 305 301
301 301 300 300 298 305 307 310 305 304 304 306 314 314 314 313 312 314 314 313 313 312 311 313 311 313 314 313 314 315 316 314 315 314 317 314 314 313 311 309 309 308 307 303 301
301 302 302 301 299 304 306 306 306 306 307 307 309 310 311 314 313 315 314 314 312 312 313 313 311 313 314 313 314 315 315 317 317 316 316 314 314 317 313 310 309 309 306 303 301
301 301 302 301 300 301 306 305 305 306 308 309 306 307 307 311 313 313 313 313 313 313 312 313 313 314 315 316 314 315 317 316 316 316 316 315 316 319 319 314 311 309 307 303 302
300 303 301 300 301 301 305 305 304 305 306 307 309 310 309 311 311 312 311 311 312 313 314 313 314 314 314 314 314 315 314 315 318 317 318 318 317 313 313 314 312 309 307 303 302
300 301 301 300 304 303 303 304 305 305 306 306 307 308 309 310 310 310 311 311 312 312 314 314 316 316 314 314 314 315 315 314 315 315 317 317 316 313 312 313 311 309 304 302 300
300 303 301 302 302 303 303 303 304 304 305 306 307 308 308 308 309 309 309 311 310 312 311 312 313 314 314 313 315 317 315 315 315 318 316 315 313 313 313 312 309 307 304 301 298
299 301 301 302 303 303 304 303 303 304 303 305 306 307 308 307 307 308 308 308 309 308 309 310 310 309 310 311 311 313 313 313 314 315 316 314 312 312 312 313 310 307 304 300 298
298 301 300 303 302 303 304 304 303 303 304 305 305 305 305 306 306 306 307 308 308 309 310 311 309 309 309 309 309 309 310 310 311 312 312 312 313 312 311 312 310 307 302 299 298
298 300 301 302 304 304 305 304 304 305 304 304 305 306 307 307 306 306 307 307 308 309 309 310 310 310 310 308 310 312 311 311 311 311 312 312 312 312 312 312 310 306 302 299 297

GFSSW_850_thetae_129.txt.gz
Theta_e
323 323 324 325 325 325 325 325 324 324 323 321 318 316 312 308 307 310 312 313 312 309 307 312 314 317 318 319 320 322 326 326 326 324 327 323 324 324 324 324 324 323 323 322 321
324 324 324 324 325 325 325 324 324 323 321 319 316 314 308 306 306 311 312 309 311 310 311 316 318 320 321 321 321 322 325 326 325 324 323 323 323 322 322 323 322 323 322 320 320
324 324 324 324 324 324 323 323 323 321 319 316 313 310 306 305 311 313 313 311 311 309 316 317 320 322 323 322 322 323 324 324 322 321 321 321 321 320 320 320 320 319 319 318 318
324 324 323 323 323 323 323 322 321 319 316 312 309 306 304 304 314 316 313 315 316 317 317 319 320 321 321 322 321 321 320 319 319 319 319 320 320 320 319 318 317 317 317 317 317
326 324 324 323 323 322 321 321 320 317 312 307 305 303 303 311 312 312 307 312 315 317 318 318 319 319 320 318 318 318 318 319 319 319 318 318 318 319 318 317 317 316 316 317 317
323 325 323 323 322 321 320 319 317 312 308 305 303 303 308 312 311 311 307 311 315 316 316 316 317 318 318 318 318 321 320 320 319 318 317 317 317 316 316 316 316 317 317 317 318
324 322 322 321 321 320 318 316 311 306 304 302 302 302 309 310 309 311 308 311 313 314 316 316 316 316 316 319 318 318 318 318 318 318 318 316 317 317 317 317 316 317 316 317 316
315 316 321 320 319 317 313 310 306 302 301 302 301 306 310 309 309 310 311 311 312 312 313 314 314 315 317 317 317 317 319 319 319 317 317 315 317 319 317 317 317 317 317 317 315
312 310 311 314 314 311 307 303 302 300 301 301 303 312 311 310 308 308 310 311 312 312 314 315 315 316 317 318 318 319 319 319 318 317 317 316 317 318 316 316 316 317 318 317 314
311 310 309 306 307 306 301 300 301 300 303 307 309 310 309 309 310 311 311 310 312 311 314 315 316 318 318 319 319 319 320 318 318 318 317 317 317 317 316 316 317 318 318 316 314
311 310 309 306 304 303 300 304 308 311 308 309 311 309 310 310 311 313 313 311 313 312 316 315 318 318 318 319 319 318 317 316 317 317 317 318 318 317 317 317 318 319 318 316 314
309 308 306 306 305 300 300 309 308 311 310 310 309 309 310 312 313 314 314 314 314 315 314 317 318 317 317 318 318 318 317 317 317 317 317 317 317 317 319 319 318 317 316 314 314
307 308 307 306 302 300 300 307 308 310 308 307 308 308 308 308 310 313 314 315 315 315 316 318 317 317 316 318 317 317 317 317 317 317 317 317 317 319 319 318 316 315 314 313 312
307 306 306 304 301 305 306 304 308 304 309 309 308 310 308 309 310 308 314 314 316 315 315 316 316 315 315 317 316 317 316 316 316 315 317 318 320 318 321 319 317 315 314 313 311
307 305 305 303 306 304 306 303 308 306 312 312 310 310 310 309 310 309 310 314 314 314 314 315 315 315 316 315 315 316 316 315 315 316 317 317 318 318 319 320 319 317 315 312 310
306 305 305 303 303 306 306 306 309 312 311 312 312 311 313 310 309 312 309 312 313 314 315 315 315 316 316 316 316 315 315 315 316 317 318 317 317 317 319 319 318 317 314 312 308
306 305 305 303 303 307 304 308 310 308 310 312 313 313 313 312 311 314 311 313 313 312 315 316 315 315 315 316 315 316 316 318 319 321 321 318 317 317 318 317 316 316 314 312 308
306 305 304 302 304 305 306 310 306 307 311 310 312 314 314 313 313 314 313 312 312 313 314 316 315 315 315 315 316 316 316 317 315 316 316 317 318 318 318 316 315 314 314 311 307
305 305 304 301 303 304 307 308 306 308 310 309 312 315 314 314 314 315 315 313 312 313 314 316 316 316 315 314 314 316 317 316 316 316 317 316 316 318 317 316 314 313 312 310 306
306 303 303 303 302 306 307 308 307 307 308 307 308 312 313 315 313 316 315 314 314 313 314 314 315 314 315 315 315 315 315 317 317 316 316 315 316 319 319 317 315 314 312 308 306
305 302 301 303 303 304 307 307 307 307 306 307 306 310 311 313 314 316 315 314 314 314 314 314 313 314 316 315 313 314 316 316 316 316 316 316 318 319 320 317 316 314 313 308 305
300 301 302 303 303 303 307 307 305 307 307 309 309 309 307 311 313 314 314 314 313 314 314 314 313 312 315 314 314 314 315 315 321 317 319 319 321 317 317 316 315 314 312 309 306
298 300 302 302 304 306 305 305 305 306 307 307 308 309 310 309 309 310 310 313 312 314 314 314 316 315 312 312 315 316 315 316 316 317 318 319 319 316 315 314 314 314 313 308 306
298 302 302 301 303 304 304 305 305 305 306 306 307 308 309 310 310 308 309 312 312 313 309 313 314 312 312 313 316 317 316 315 315 319 319 319 317 316 315 315 314 314 312 308 306
298 301 301 302 303 305 305 305 306 306 306 306 308 307 308 308 307 308 307 309 310 310 310 311 313 311 311 313 314 314 315 315 316 316 319 318 315 316 315 314 314 313 311 307 305
298 300 300 304 303 305 306 305 304 304 305 306 306 306 306 307 307 307 308 308 308 308 309 311 312 311 311 312 311 310 310 311 311 313 314 314 315 314 313 312 312 313 310 307 305
298 300 302 305 305 306 307 305 305 304 304 304 305 305 305 306 305 305 305 306 307 308 310 310 311 311 312 309 309 310 309 310 310 310 310 312 312 312 312 312 312 313 311 308 305

GFSSW_850_thetae_132.txt.gz
Theta_e
323 323 323 323 324 326 326 325 325 325 325 324 323 321 319 316 318 314 313 314 314 314 308 308 314 315 318 318 320 321 323 326 327 326 327 324 325 325 325 325 325 325 324 322 322
324 323 323 324 324 324 325 325 324 324 324 323 322 320 317 311 314 315 315 313 311 308 309 317 317 318 320 321 321 321 323 325 325 325 325 323 324 323 323 325 324 324 323 321 321
325 324 324 324 324 324 324 325 324 323 322 322 321 318 313 308 312 320 313 313 311 312 314 317 319 321 323 323 322 322 323 323 323 321 322 322 322 321 321 320 321 321 321 320 319
325 325 324 324 324 323 323 323 323 322 322 321 319 314 310 307 317 317 310 310 313 315 318 319 320 322 322 324 322 322 322 321 321 321 320 320 320 320 320 320 319 318 319 317 319
324 325 327 324 324 324 323 323 322 320 321 320 316 309 307 312 315 315 313 311 308 317 318 319 319 320 322 321 321 321 320 319 319 319 320 319 319 319 319 318 317 317 317 318 319
326 325 324 326 325 324 323 322 322 320 319 316 311 306 306 312 314 313 312 312 313 316 317 317 318 319 319 320 319 319 321 320 320 320 320 319 318 318 318 318 317 317 318 319 319
326 324 325 324 324 323 322 321 320 318 315 312 306 302 308 311 313 312 313 311 312 314 316 318 317 318 318 317 318 319 320 320 319 319 318 318 318 317 317 317 318 318 318 318 317
320 318 321 323 323 321 320 319 318 313 309 305 303 301 309 310 311 311 312 313 312 314 314 316 316 316 317 318 319 319 318 318 319 319 318 316 317 319 318 318 318 318 318 319 316
312 314 314 315 316 316 314 315 313 307 304 302 302 312 313 312 311 310 311 312 313 313 313 314 315 316 317 318 319 319 318 319 319 319 319 318 318 319 318 318 318 317 318 319 316
311 312 312 313 313 310 307 305 303 303 302 304 309 309 311 311 311 311 311 311 312 313 313 315 316 317 317 319 318 318 319 320 319 319 318 317 317 318 318 317 317 318 320 318 316
312 312 311 311 313 309 305 302 309 312 308 311 311 310 311 310 311 312 313 311 312 313 314 315 316 317 317 318 319 318 319 319 319 319 318 318 317 318 318 317 318 319 319 318 316
310 310 310 309 309 309 302 304 309 310 312 313 311 311 311 312 313 312 314 312 312 314 314 315 317 317 318 319 318 318 319 319 318 317 318 318 318 318 318 318 318 319 319 317 315
309 308 309 307 305 303 301 304 307 308 308 309 309 310 311 310 311 313 315 313 314 315 315 315 317 317 317 318 318 319 319 319 317 318 318 318 318 318 318 318 319 318 318 316 315
308 308 307 307 306 305 305 306 309 301 309 312 311 309 309 310 310 310 315 315 316 316 315 315 316 317 317 317 317 318 318 317 317 318 317 317 319 319 320 320 319 317 316 315 313
309 307 307 306 306 305 307 307 307 305 316 316 315 311 311 310 312 311 310 315 316 316 316 316 315 316 317 316 316 317 317 317 317 317 317 316 317 317 318 321 319 317 316 315 313
309 307 307 306 305 306 307 307 306 310 314 314 313 312 312 310 310 311 309 314 314 316 316 315 315 316 316 316 316 316 317 316 316 316 319 316 317 317 318 321 320 318 317 315 311
308 308 307 305 304 307 306 305 309 313 312 314 314 313 313 313 311 311 311 311 314 315 316 314 315 316 316 316 316 316 317 318 318 318 319 318 319 319 319 321 320 319 316 314 310
306 308 306 305 304 305 306 306 309 310 311 313 314 314 314 314 313 312 314 311 313 314 314 315 316 315 316 316 317 317 317 318 317 320 319 318 320 318 319 317 318 317 315 313 310
304 306 306 304 303 305 306 309 306 308 310 310 312 314 315 314 314 312 314 314 312 313 314 315 314 315 316 315 316 317 317 317 318 318 319 316 317 319 319 318 316 316 315 312 309
301 302 305 305 304 305 306 307 307 307 309 309 311 313 315 315 314 313 315 315 314 313 314 313 316 315 316 315 315 315 317 319 320 317 317 316 316 318 320 319 317 316 315 312 309
299 299 302 304 304 304 307 306 307 307 308 308 308 309 311 314 315 314 316 315 315 313 313 313 316 316 316 316 315 314 315 316 318 317 315 316 321 321 321 319 317 316 315 312 308
298 299 300 303 304 302 306 306 306 307 307 307 309 310 311 312 312 315 315 316 314 315 314 314 315 316 316 315 314 314 314 316 319 319 319 320 320 320 320 318 316 315 315 313 309
298 298 299 301 305 305 305 305 306 307 307 308 308 309 310 311 311 314 315 314 313 314 316 315 318 317 314 316 315 314 314 315 316 317 318 318 318 317 316 317 316 316 314 312 308
297 301 299 300 302 304 305 306 306 306 308 308 308 309 308 309 311 310 313 312 312 311 311 314 315 315 316 314 314 316 315 316 317 318 318 318 318 317 317 316 315 314 314 312 308
296 299 301 303 301 304 305 305 306 307 307 307 308 309 309 309 308 310 310 309 310 310 311 313 314 313 312 311 311 314 316 317 317 318 319 318 317 316 317 317 315 314 313 312 309
297 299 300 301 300 304 305 307 306 306 307 307 308 308 309 309 309 310 308 308 308 309 309 311 311 310 311 310 311 313 314 315 314 314 314 316 316 316 315 314 314 313 314 311 309
296 297 298 302 302 303 305 305 306 307 307 306 307 308 307 307 307 307 306 306 307 309 310 310 310 310 310 309 311 312 313 312 313 312 311 311 312 312 312 313 313 313 313 311 309

GFSSW_850_thetae_135.txt.gz
Theta_e
322 322 322 322 322 322 324 325 326 325 325 325 325 324 324 323 323 321 318 316 314 313 313 309 309 314 316 316 318 318 316 318 321 321 323 324 322 325 324 324 324 322 322 322 322
322 322 323 323 322 322 324 324 325 325 325 324 323 323 322 321 320 319 315 313 313 312 310 310 318 318 316 319 319 318 315 320 321 320 322 322 322 322 322 324 323 321 320 320 320
323 323 324 324 323 324 324 324 324 324 323 322 322 322 320 319 316 318 312 311 311 312 311 317 317 318 321 321 321 319 316 318 321 321 320 319 321 320 320 319 321 320 319 319 319
323 324 324 325 324 324 324 323 323 323 323 321 321 321 317 314 317 317 317 314 313 312 317 319 319 319 320 319 323 320 320 321 320 320 319 318 319 319 320 318 318 318 318 319 319
324 324 324 324 324 326 324 324 323 323 322 322 320 317 312 310 315 318 315 314 313 308 313 318 318 319 318 319 319 319 320 321 320 320 319 319 318 318 318 318 318 317 318 319 319
326 325 325 325 325 325 325 324 324 322 321 321 317 312 305 310 315 313 312 313 312 310 316 317 317 317 318 318 317 318 319 320 319 319 319 318 317 318 317 317 317 318 319 318 318
326 326 326 324 324 324 325 324 323 322 320 319 313 305 303 311 315 312 312 313 310 312 314 316 317 317 318 316 319 319 318 316 318 319 318 318 316 315 317 317 317 318 318 317 316
315 313 315 317 319 323 323 323 322 320 318 314 308 302 303 313 311 312 312 312 312 312 313 315 316 316 316 316 316 318 317 316 315 316 316 316 314 314 317 317 317 317 317 316 315
313 311 312 312 313 314 316 318 318 317 314 306 305 307 313 313 312 312 311 312 312 312 313 313 314 315 316 313 313 315 314 314 315 316 314 313 315 315 317 318 318 317 316 316 314
315 313 310 311 311 312 313 311 308 309 304 303 303 308 311 313 312 311 311 310 312 313 313 313 315 313 312 312 314 315 316 313 313 315 314 314 314 315 318 318 318 316 316 314 313
312 313 310 310 310 311 311 309 310 311 308 311 312 311 312 311 311 311 311 310 311 312 312 314 313 312 314 314 315 316 315 314 315 316 314 315 313 314 316 316 316 318 316 314 313
310 310 310 311 310 311 310 310 309 310 310 311 313 312 311 311 312 313 312 312 311 311 313 312 314 314 315 315 315 316 317 316 316 316 315 313 313 313 314 316 317 318 316 315 313
310 309 310 308 307 307 307 309 308 308 308 309 311 312 314 311 311 311 313 313 311 311 312 312 313 315 315 315 316 316 317 316 317 316 314 315 314 314 315 316 317 318 317 316 314
309 309 308 308 307 307 306 307 308 306 307 311 312 311 310 313 311 310 311 314 312 312 312 313 313 313 316 315 316 315 317 318 317 315 314 315 314 314 315 315 316 316 316 315 313
310 308 308 307 307 306 307 305 307 307 314 314 314 311 310 311 311 310 311 314 313 315 314 315 313 313 313 316 316 316 317 316 316 315 316 316 313 312 315 318 316 314 314 314 313
310 309 308 308 306 306 306 306 306 310 313 313 312 311 311 310 310 311 310 311 315 315 315 314 315 313 314 315 315 316 316 316 315 313 313 314 313 313 313 315 317 315 314 313 311
306 308 309 307 307 306 306 306 306 311 311 313 314 312 311 311 310 311 310 308 314 315 315 314 314 315 314 315 314 314 315 314 314 313 314 314 315 314 314 317 317 315 314 313 312
304 305 307 308 307 305 306 305 307 309 310 312 313 314 312 313 311 311 311 309 311 312 313 312 313 313 313 314 315 315 316 316 318 316 315 315 316 316 317 318 317 316 313 312 310
303 304 305 307 306 305 304 306 307 307 309 310 310 310 314 313 314 312 310 311 309 312 313 313 313 313 313 314 315 316 316 314 316 316 313 314 315 317 317 317 316 314 311 310 309
297 300 303 305 306 304 305 307 307 306 307 307 308 310 311 313 313 313 312 311 312 309 311 313 313 313 314 314 314 314 315 317 316 318 316 315 314 314 316 315 316 313 310 309 309
296 298 299 302 305 303 305 306 306 306 306 308 308 309 308 310 312 314 313 312 312 313 311 311 312 314 315 314 314 313 314 316 316 315 315 314 312 319 316 316 315 313 311 309 308
297 291 299 302 304 300 304 306 305 305 305 307 308 309 309 310 311 310 315 313 315 314 313 311 312 313 313 314 314 313 314 314 317 316 313 312 313 318 316 316 315 314 312 310 309
297 297 297 300 299 304 303 304 305 306 305 307 308 309 309 310 310 311 314 314 312 313 311 312 313 314 315 315 313 314 313 313 315 314 315 313 314 318 317 316 315 314 313 310 309
296 295 298 299 300 301 303 305 305 304 304 305 307 308 309 309 308 311 312 312 310 311 310 311 316 313 314 313 314 314 314 313 316 315 314 314 315 314 316 316 315 314 311 310 309
295 294 297 292 299 300 301 303 306 305 305 305 308 308 308 309 308 310 310 308 308 308 308 310 313 311 312 311 312 314 315 315 317 317 317 316 317 315 314 316 315 314 314 313 310
295 295 297 299 299 300 301 303 304 306 305 306 308 308 308 309 309 310 308 308 309 309 308 308 311 308 310 309 309 310 312 314 314 315 315 315 314 313 313 314 315 315 314 314 308
294 295 296 296 299 300 300 301 306 306 306 306 307 308 308 307 307 307 307 307 307 308 308 309 308 309 309 309 309 309 309 309 313 313 313 314 313 312 311 311 312 314 314 311 309

GFSSW_850_thetae_138.txt.gz
Theta_e
321 321 321 321 321 321 321 321 323 324 325 325 324 323 321 321 321 322 319 314 314 313 313 311 309 316 315 315 317 318 313 315 320 320 322 323 322 324 324 323 323 323 322 322 325
322 322 321 322 322 322 322 322 323 324 324 324 323 322 321 321 321 320 313 311 311 311 311 309 314 318 318 317 318 315 312 316 318 319 319 319 322 322 321 321 321 321 321 321 323
321 322 322 322 323 323 323 323 323 323 323 323 323 322 320 321 319 318 316 318 316 312 311 316 317 318 319 320 319 316 314 314 320 320 318 317 319 319 318 319 320 319 320 321 321
322 322 322 323 323 323 324 324 324 323 323 323 322 322 320 319 319 318 319 318 317 314 315 318 318 318 318 318 320 319 318 318 320 319 319 317 318 318 318 319 320 319 319 319 319
325 324 324 323 323 323 323 323 325 324 324 323 322 321 319 315 318 317 316 314 314 314 309 316 317 317 317 317 317 317 317 319 319 319 319 318 317 317 317 318 318 319 319 319 319
325 325 325 325 324 324 324 324 324 325 324 323 322 319 310 310 317 314 314 313 313 312 310 315 316 316 316 317 316 316 317 318 317 318 319 317 317 317 316 316 318 318 318 318 318
326 325 325 325 325 325 325 324 324 323 324 323 321 316 308 319 321 314 314 313 313 310 312 315 314 315 316 315 316 317 316 315 316 318 317 317 315 314 317 316 318 318 318 317 316
324 324 321 316 317 318 319 321 322 323 322 321 318 309 309 321 316 317 314 313 312 312 312 313 314 314 315 315 315 315 316 316 315 315 317 316 315 313 317 316 316 316 316 316 315
315 314 313 312 312 313 313 314 316 320 318 317 311 308 312 316 316 313 312 312 312 311 312 313 313 314 315 312 312 313 315 314 314 314 314 313 315 313 316 315 315 315 315 315 314
317 315 315 314 313 313 313 313 310 308 307 307 305 308 314 317 312 312 311 311 311 312 312 312 313 311 310 311 313 314 315 314 313 313 312 311 313 314 313 315 316 314 314 314 313
310 312 312 313 313 313 313 312 312 312 310 311 313 313 313 311 311 311 311 310 310 311 311 312 312 312 314 313 314 314 313 313 312 314 313 313 314 312 315 314 315 313 314 314 313
311 310 311 311 310 310 310 311 312 310 309 311 312 312 314 316 311 312 311 311 309 309 311 312 312 313 314 313 313 313 314 314 313 315 313 311 312 311 312 314 315 314 313 313 312
311 310 310 310 310 309 310 310 310 309 308 309 311 310 312 313 312 311 311 312 310 310 310 311 312 313 313 313 313 314 314 314 315 315 313 311 311 312 313 314 314 314 314 313 313
309 310 309 309 308 308 309 309 309 308 308 310 310 311 311 312 313 313 312 312 312 310 310 310 311 312 312 313 314 314 314 315 316 315 313 312 314 311 312 313 315 314 312 312 311
309 310 309 308 307 307 307 307 308 307 313 313 312 311 311 312 313 311 313 311 313 312 311 311 313 313 312 312 314 314 315 314 315 314 314 313 312 311 311 313 315 313 312 311 310
311 310 308 308 307 307 306 306 307 310 311 313 312 310 311 312 311 310 310 311 313 312 312 311 313 312 312 312 312 315 315 313 312 312 314 313 313 314 310 314 315 313 311 311 311
309 309 308 308 308 306 306 306 308 310 310 312 312 311 311 311 311 310 308 309 310 314 314 314 314 314 314 313 312 313 315 316 314 312 315 314 314 315 312 312 315 313 311 311 311
305 306 308 308 307 307 307 305 307 308 309 310 310 312 311 311 309 310 310 308 309 311 312 313 313 312 314 313 314 313 315 316 316 315 314 313 314 313 315 314 315 314 312 308 309
302 304 305 307 307 307 305 307 305 306 308 308 308 309 310 313 313 310 310 310 308 309 314 312 312 311 313 313 313 314 314 314 316 316 313 312 312 315 316 315 315 313 309 308 308
296 300 303 305 307 304 304 307 306 306 306 306 308 308 310 310 312 312 311 310 310 310 310 312 313 311 312 313 313 313 313 316 315 316 316 314 313 315 317 315 314 311 309 307 308
295 297 298 302 305 304 304 306 306 305 305 307 308 308 308 309 310 311 313 313 314 312 310 310 312 311 312 312 312 313 315 315 315 315 315 315 313 311 316 315 313 311 308 307 308
295 288 300 301 303 301 304 305 305 305 305 305 307 307 309 310 310 310 312 315 313 313 313 311 310 311 311 311 311 311 314 315 316 315 314 314 314 315 314 315 314 312 308 309 309
296 296 298 301 301 302 303 304 304 304 305 306 306 307 308 308 308 311 313 311 312 311 312 311 313 312 311 311 310 311 312 314 315 314 315 315 314 316 315 314 314 312 309 307 307
295 287 296 298 298 296 298 300 303 304 304 304 306 307 307 307 308 309 309 310 310 309 308 309 314 313 312 311 312 313 313 313 314 316 315 314 314 315 316 314 312 312 311 308 309
295 292 294 297 297 298 298 299 300 301 304 304 305 305 306 308 307 308 308 308 308 308 307 306 312 310 311 310 311 312 314 315 316 317 316 315 315 316 315 314 313 312 310 308 307
293 292 295 296 297 297 298 297 300 300 301 303 305 305 306 307 307 308 309 308 308 308 307 307 310 309 310 309 309 310 309 311 313 314 314 315 313 312 313 314 315 312 310 310 308
294 295 295 294 295 297 297 298 299 299 300 301 303 305 306 307 307 308 308 308 307 307 307 308 308 309 309 310 309 309 309 308 308 309 311 311 311 310 312 311 311 314 312 311 312